CZ-3C DEB, 40854

Orbit data source: Space-Track

CZ-3C DEB, 40854 is space debris in HEO originally from a launch on Fri, 24 Feb 2012 UTC launched from the Xichang Space Center, China (XSC). Debris objects in space refer to the collection of defunct objects orbiting the Earth. Examples of debris include non-operational satellites, rocket bodies, and fragments generated from explosions, collisions, or faulty payload assembly.

Loading next visibility...
Identifier
40854, 2012-008U
Orbit
HEO
Country
Flag of CNCN / PRC
Related business
Manufacturer
CALT
Mission
Spacecraft
Bus & Motor
Unknown
Mass
Unknown
Launch date (UTC)
2012-02-24 (14 years ago)
Launch vehicle
Unknown
Launch site
Xichang Space Center, China (XSC)
Object type
Payload
Rocket body
Debris
Shape & HBR
Unknown
Radar Cross Section
Medium (>0.1 m² and <1 m²)

Expand to show TLE details & history
Last TLE update: 1 year ago

TLE from 1 year ago
0 CZ-3C DEB
1 40854U 12008U   24098.67979781  .00003189  00000-0  25835-1 0  9994
2 40854  20.2524 198.8117 7097395 235.2609  36.9956  2.36270535 81583
Epoch: 2024-04-07T16:18Z
TLE epoch observation values (Epoch: 2024-04-07T16:18:54.53Z)
Latitude
0.00004°
Longitude
117.7388°
Altitude
13,538.732 km
Speed
4.825 km/s
True Right ascension
13h 15m 35s
True Declination
0° 00' 00"
Sunlit
Object was in full shadow at epoch
Visualization orbit readout
Latitude
Unknown
Longitude
Unknown
Altitude
Unknown
Speed
Unknown
Apparent Right ascension
Unknown
Apparent Declination
Unknown
Sunlit
N/A
Visualization observer readout
Local Sidereal Time
12:42:34
Azimuth
Unknown
Elevation
Unknown
Doppler factor
Unknown
Orbital elements
Apogee altitude
34,341.587 km
Perigee altitude
534.804 km
Semi-major axis
23,816.332 km
Eccentricity
0.70974
Inclination
20.2524°
RAAN
198.8117°
Arg. of periapsis
235.2609°
True anomaly
124.84919°
Mean anomaly
36.9956°
Eccentric anomaly
76.54445°
Mean motion
0.59051 °/min
Orbital period
609.64 mins
BSTAR
0.025835
Loading maneuver chart data...
Computing Atmospheric mass density...
Loading historical data...
Loading historical data...
Loading historical data...
Loading historical data...
Loading historical data...
Loading historical data...
Loading historical data...

Documentation

Showing up to 5 results
|